{"data":{"norad_id":82494,"epoch":"2026-09-16T05:29:39.842304Z","epoch_age_seconds":387364,"freshness":"STALE","line1":"1 82494U          26259.22893336  .00016738  00000+0  14976-2 0  9990","line2":"2 82494  74.0036 184.2703 0009108 245.6492 114.3742 14.95813308126333","mean_motion":14.95813308,"eccentricity":0.0009108,"inclination_deg":74.0036,"raan_deg":184.2703,"arg_perigee_deg":245.6492,"mean_anomaly_deg":114.3742,"bstar":0.0014976,"rev_number":12633,"period_min":96.268698259235,"perigee_km":573.5121291233,"apogee_km":586.18679726466,"semimajor_km":6957.986463194,"source":"CELESTRAK","updated_at":"2026-09-20T09:00:32.435507Z"}}